COSMOS 970 DEB, 65002

Orbit data source: Space-Track

COSMOS 970 DEB, 65002 is space debris in LEO originally from a launch on Wed, 21 Dec 1977 UTC launched from the Tyuratam Missile And Space Complex (TTMTR). Debris objects in space refer to the collection of defunct objects orbiting the Earth. Examples of debris include non-operational satellites, rocket bodies, and fragments generated from explosions, collisions, or faulty payload assembly.

Loading next visibility...
Identifier
65002, 1977-121DP
Orbit
LEO
Country
Flag of CISCIS
Related business
Manufacturer
Unknown
Mission
Spacecraft
Bus & Motor
Unknown
Mass
Unknown
Launch date (UTC)
1977-12-21 (48 years ago)
Launch vehicle
Unknown
Launch site
Tyuratam Missile And Space Complex (TTMTR)
Object type
Payload
Rocket body
Debris
Shape & HBR
Unknown shape, 0.1 m
Radar Cross Section
Small (<0.1 m²)

Expand to show TLE details & history
Last TLE update: 3 weeks ago

TLE from 3 weeks ago
0 COSMOS 970 DEB
1 65002U 77121DP  26154.00352035  .00000486  00000-0  55927-3 0  9996
2 65002  65.8340 285.8502 0106276 135.5945 325.3239 13.76046831628423
Epoch: 2026-06-03T00:05Z
TLE epoch observation values (Epoch: 2026-06-03T00:05:04.158Z)
Latitude
63.99695°
Longitude
146.90383°
Altitude
924.028 km
Speed
7.428 km/s
True Right ascension
02h 38m 33s
True Declination
63° 51' 51"
Sunlit
Object was in daylight at epoch
Visualization orbit readout
Latitude
Unknown
Longitude
Unknown
Altitude
Unknown
Speed
Unknown
Apparent Right ascension
Unknown
Apparent Declination
Unknown
Sunlit
N/A
Visualization observer readout
Local Sidereal Time
07:11:59
Azimuth
Unknown
Elevation
Unknown
Doppler factor
Unknown
Orbital elements
Apogee altitude
1,054.619 km
Perigee altitude
898.296 km
Semi-major axis
7,354.595 km
Eccentricity
0.01063
Inclination
65.834°
RAAN
285.8502°
Arg. of periapsis
135.5945°
True anomaly
324.6234°
Mean anomaly
325.3239°
Eccentric anomaly
324.97442°
Mean motion
3.44116 °/min
Orbital period
104.62 mins
BSTAR
0.00055927
Loading maneuver chart data...
Computing Atmospheric mass density...
Loading historical data...
Loading historical data...
Loading historical data...
Loading historical data...
Loading historical data...
Loading historical data...
Loading historical data...

Documentation

Showing up to 5 results
|